EW8956 Weather Reports


time (UTC)temp
C
wind
direction
speed
KPH
gust
KPH
rain 1hr
cm
rain 24hr
cm
rain mn
cm
humidity
%
barometer
mb
20260505221548 25 243 6.4 25.7 0.00 0.00 0.00 34 1013.8
20260505220050 25 170 6.4 22.5 0.00 0.00 0.00 35 1013.8
20260505214554 25 217 6.4 30.6 0.00 0.00 0.00 34 1014.0
20260505213043 26 232 4.8 16.1 0.00 0.00 0.00 33 1013.9
20260505211601 26 0 6.4 30.6 0.00 0.00 0.00 32 1014.1
20260505210048 26 279 1.6 20.9 0.00 0.00 0.00 32 1014.1
20260505204549 26 228 8.0 29.0 0.00 0.00 0.00 32 1014.1
20260505203110 26 171 4.8 17.7 0.00 0.00 0.00 32 1014.5
20260505201543 26 167 8.0 29.0 0.00 0.00 0.00 32 1014.4
20260505200040 26 105 4.8 22.5 0.00 0.00 0.00 30 1014.5
20260505194549 26 177 4.8 20.9 0.00 0.00 0.00 32 1014.8
20260505193049 26 134 6.4 22.5 0.00 0.00 0.00 35 1015.0
20260505191550 26 169 8.0 20.9 0.00 0.00 0.00 34 1015.1
20260505190043 26 261 3.2 17.7 0.00 0.00 0.00 34 1015.3
20260505184550 25 151 4.8 24.1 0.00 0.00 0.00 36 1015.7
20260505183050 25 209 8.0 38.6 0.00 0.00 0.00 35 1015.8
20260505181551 25 146 4.8 24.1 0.00 0.00 0.00 35 1016.0
20260505180056 25 216 6.4 16.1 0.00 0.00 0.00 35 1016.3
20260505174551 24 246 4.8 27.4 0.00 0.00 0.00 38 1016.2
20260505173057 24 225 8.0 20.9 0.00 0.00 0.00 37 1016.3
20260505171559 25 97 3.2 19.3 0.00 0.00 0.00 38 1016.3
20260505170055 25 190 3.2 14.5 0.00 0.00 0.00 37 1016.6
20260505164551 24 186 4.8 27.4 0.00 0.00 0.00 37 1016.7
20260505163051 25 167 1.6 17.7 0.00 0.00 0.00 38 1016.8
20260505161553 24 86 4.8 14.5 0.00 0.00 0.00 37 1016.8
20260505153053 23 208 3.2 16.1 0.00 0.00 0.00 43 1017.2
20260505151551 22 211 3.2 12.9 0.00 0.00 0.00 46 1017.3
20260505124551 16 0 1.6 11.3 0.00 0.00 0.00 66 1017.1
20260505123054 16 212 1.6 16.1 0.00 0.00 0.00 68 1016.9
20260505121549 15 0 1.6 20.9 0.00 0.00 0.00 70 1017.0
20260505120106 15 209 0.0 14.5 0.00 0.00 0.00 71 1016.9
20260505114547 14 161 1.6 14.5 0.00 0.00 0.00 72 1017.0
20260505113057 13 0 0.0 8.0 0.00 0.00 0.00 74 1016.8
20260505111545 12 0 0.0 3.2 0.00 0.00 0.00 76 1016.7
20260505101557 12 0 0.0 3.2 0.00 0.00 0.00 74 1016.5
20260505100046 12 0 0.0 4.8 0.00 0.00 0.00 73 1016.4
20260505094558 12 0 0.0 1.6 0.00 0.00 0.00 73 1016.4
20260505093053 12 0 0.0 1.6 0.00 0.00 0.00 71 1016.3
20260505091550 12 0 0.0 0.0 0.00 0.00 0.00 71 1016.3
20260505090056 13 0 0.0 1.6 0.00 0.00 0.00 70 1016.1
20260505084548 13 0 0.0 1.6 0.00 0.00 0.00 68 1015.8
20260505083103 13 0 0.0 1.6 0.00 0.00 0.00 66 1015.7
20260505081551 14 0 0.0 4.8 0.00 0.00 0.00 65 1015.6
20260505080051 15 0 0.0 9.7 0.00 0.00 0.00 63 1015.5
20260505074548 15 0 0.0 8.0 0.00 0.00 0.00 62 1015.4
20260505073049 15 0 0.0 8.0 0.00 0.00 0.00 61 1015.3
20260505071545 15 0 0.0 12.9 0.00 0.00 0.00 60 1015.4
20260505070059 15 0 1.6 12.9 0.00 0.00 0.00 58 1015.1
20260505064550 16 266 3.2 12.9 0.00 0.00 0.00 56 1015.2
20260505063046 16 0 3.2 14.5 0.00 0.00 0.00 54 1015.3
20260505061611 16 0 1.6 11.3 0.00 0.00 0.00 52 1015.2
20260505060052 16 213 0.0 8.0 0.00 0.00 0.00 50 1015.1
20260505054548 16 200 1.6 11.3 0.00 0.00 0.00 49 1015.2
20260505053054 17 167 0.0 8.0 0.00 0.00 0.00 47 1015.3
20260505051543 17 124 0.0 8.0 0.00 0.00 0.00 45 1015.3
20260505041548 18 229 0.0 6.4 0.00 0.00 0.00 40 1015.3
20260505034550 18 223 0.0 6.4 0.00 0.00 0.00 37 1015.3
20260505033100 18 0 0.0 6.4 0.00 0.00 0.00 36 1015.4
20260505031555 19 105 1.6 9.7 0.00 0.00 0.00 36 1015.5
20260505030055 20 0 0.0 9.7 0.00 0.00 0.00 35 1015.4
20260505024552 20 199 0.0 6.4 0.00 0.00 0.00 34 1015.4
20260505023054 20 213 3.2 14.5 0.00 0.00 0.00 33 1015.3
20260505021553 20 244 3.2 12.9 0.00 0.00 0.00 33 1015.1
20260505020046 20 0 0.0 12.9 0.00 0.00 0.00 33 1015.1
20260505014549 21 0 0.0 6.4 0.00 0.00 0.00 33 1015.0
20260505013050 21 220 1.6 8.0 0.00 0.00 0.00 32 1014.9
20260505011551 21 0 0.0 16.1 0.00 0.00 0.00 32 1014.6
20260505010104 21 0 0.0 6.4 0.00 0.00 0.00 32 1014.4
20260505004552 21 0 0.0 4.8 0.00 0.00 0.00 32 1014.3
20260505003045 22 0 0.0 4.8 0.00 0.00 0.00 32 1014.2
20260505001551 22 209 0.0 9.7 0.00 0.00 0.00 32 1014.1
20260505000101 22 224 0.0 9.7 0.00 0.00 0.00 31 1014.1
20260504234552 23 213 1.6 8.0 0.00 0.00 0.00 31 1013.9
20260504233049 23 205 0.0 6.4 0.00 0.00 0.00 32 1013.7
20260504231547 23 259 3.2 16.1 0.00 0.00 0.00 31 1013.7
20260504230044 23 115 1.6 14.5 0.00 0.00 0.00 32 1013.6
20260504224554 24 209 3.2 11.3 0.00 0.00 0.00 32 1013.7
20260504223052 24 248 1.6 11.3 0.00 0.00 0.00 31 1013.8